User: anonymous   Login
Location: Unspecified
(0.0000°N, 0.0000°E)
Time: 19:00:53
(UTC+00:00)
Language:

STARLINK-31107 - Orbit

View from above orbital plane
View from above orbital plane
View from above satellite
View from above satellite

Ground track
Ground track

The orbit is defined by the following mean orbital elements,

1 58684U          26145.34604905 +.00000000 +00000-0 +12303-4 0 00006
2 58684  43.0052  12.7518 0001238 261.9832  98.0879 15.27577703    01
Epoch (UTC): 25 May 2026 08:18:18
Eccentricity: 0.0001238
inclination: 43.0052°
perigee height: 482 km
apogee height: 484 km
right ascension of ascending node: 12.7518°
argument of perigee: 261.9832°
revolutions per day: 15.27577703
mean anomaly at epoch: 98.0879°

The dashed part of the orbit path shows where the satellite is in the earth's shadow,  

DLR